Hamilton Island, Australia

10:05 PM AEST on March 25, 2017 (GMT +1000)
Hamilton Island

Weather History for YBHM - April, 2014

Change the Weather History Date:

Thursday, April 17, 2014

  Actual Average Record
Temperature  
Mean Temperature 79 °F -  
Max Temperature 82 °F - - ()
Min Temperature 76 °F - - ()
Cooling Degree Days 14    
Growing Degree Days 29 (Base 50)    
Moisture  
Dew Point 69 °F    
Average Humidity 71    
Maximum Humidity 78    
Minimum Humidity 54    
Precipitation  
Precipitation 0.00 in - - ()
Sea Level Pressure  
Sea Level Pressure 29.99 in    
Wind  
Wind Speed 10 mph ()    
Max Wind Speed 16 mph    
Max Gust Speed -    
Visibility 6.2 miles    
Events      
T = Trace of Precipitation, MM = Missing Value Source: Averaged Metar Reports

Daily Weather History Graph

Daily Weather History Graph

Search for Another Location

Airport or City:

Trip Planner

Search our weather history database for the weather conditions in past years. The results will help you decide how hot, cold, wet, or windy it might be!

Date:

Astronomy

Apr. 17, 2014 Rise Set
Actual Time 6:15 AM AEST 5:51 PM AEST
Civil Twilight 5:53 AM AEST 6:14 PM AEST
Nautical Twilight 5:27 AM AEST 6:39 PM AEST
Astronomical Twilight 5:01 AM AEST 7:05 PM AEST
Moon 7:22 PM AEST (4/17) 7:44 AM AEST (4/17)
Length of Visible Light 12h 20m
Length of Day
11h 35m
Waning Gibbous, 96% of the Moon is Illuminated
Apr 17
Waning Gibbous
Apr 22
Last Quarter
Apr 29
New
May 7
First Quarter
May 15
Full

Hourly Weather History & Observations

Time (AEST) Temp. Heat Index Dew Point Humidity Pressure Visibility Wind Dir Wind Speed Gust Speed Precip Events Conditions
12:00 AM 77 °F - 68 °F 67% 29.99 in - East 9.2 mph - -  
12:00 AM 77.0 °F - 68.0 °F 74% 29.98 in 6.2 mi East 9.2 mph - N/A   Scattered Clouds
12:30 AM 77.0 °F - 68.0 °F 74% 29.98 in 6.2 mi ENE 9.2 mph - N/A   Scattered Clouds
1:00 AM 77.0 °F - 68.0 °F 74% 29.98 in 6.2 mi East 8.1 mph - N/A   Scattered Clouds
1:30 AM 77.0 °F - 68.0 °F 74% 29.98 in 6.2 mi East 8.1 mph - N/A   Overcast
2:00 AM 77.0 °F - 68.0 °F 74% 29.95 in 6.2 mi East 9.2 mph - N/A   Overcast
2:30 AM 77.0 °F - 68.0 °F 74% 29.95 in 6.2 mi East 8.1 mph - N/A   Overcast
3:00 AM 77 °F - 69 °F 69% 29.96 in - East 10.4 mph - -  
3:00 AM 77.0 °F - 68.0 °F 74% 29.95 in 6.2 mi East 10.4 mph - N/A   Mostly Cloudy
3:30 AM 77.0 °F - 68.0 °F 74% 29.95 in 6.2 mi East 11.5 mph - N/A   Scattered Clouds
4:00 AM 77.0 °F - 68.0 °F 74% 29.95 in 6.2 mi East 12.7 mph - N/A   Scattered Clouds
4:30 AM 77.0 °F - 69.8 °F 78% 29.95 in 6.2 mi ESE 11.5 mph - N/A   Unknown
5:00 AM 77.0 °F - 69.8 °F 78% 29.95 in 6.2 mi ESE 12.7 mph - N/A   Scattered Clouds
5:30 AM 77.0 °F - 69.8 °F 78% 29.98 in 6.2 mi ESE 12.7 mph - N/A   Scattered Clouds
6:00 AM 76 °F - 70 °F 76% 29.98 in - ESE 13.8 mph - -  
6:00 AM 77.0 °F - 69.8 °F 78% 29.98 in 6.2 mi ESE 13.8 mph - N/A   Scattered Clouds
6:30 AM 77.0 °F - 68.0 °F 74% 29.98 in 6.2 mi ESE 15.0 mph - N/A   Scattered Clouds
7:00 AM 77.0 °F - 68.0 °F 74% 29.98 in 6.2 mi East 15.0 mph - N/A   Scattered Clouds
7:30 AM 78.8 °F - 69.8 °F 74% 30.01 in 6.2 mi ESE 12.7 mph - N/A   Scattered Clouds
8:00 AM 78.8 °F - 68.0 °F 69% 30.01 in 6.2 mi East 11.5 mph - N/A   Mostly Cloudy
8:30 AM 77.0 °F - 69.8 °F 78% 30.04 in 6.2 mi ESE 11.5 mph - N/A   Mostly Cloudy
9:00 AM 80 °F - 70 °F 64% 30.04 in - East 16.1 mph - -   Overcast
9:00 AM 80.6 °F 83.9 °F 69.8 °F 70% 30.04 in 6.2 mi East 16.1 mph - N/A   Mostly Cloudy
9:30 AM 80.6 °F 83.9 °F 69.8 °F 70% 30.04 in 6.2 mi East 16.1 mph - N/A   Mostly Cloudy
10:00 AM 80.6 °F 83.2 °F 68.0 °F 65% 30.04 in 6.2 mi East 16.1 mph - N/A   Mostly Cloudy
10:30 AM 80.6 °F 83.9 °F 69.8 °F 70% 30.04 in 6.2 mi East 12.7 mph - N/A   Scattered Clouds
11:00 AM 82.4 °F 87.2 °F 71.6 °F 70% 30.04 in 6.2 mi ESE 12.7 mph - N/A   Scattered Clouds
11:30 AM 80.6 °F 83.2 °F 68.0 °F 65% 30.01 in 6.2 mi East 15.0 mph - N/A   Scattered Clouds
12:00 PM 81 °F - 67 °F 54% 30.01 in - East 15.0 mph - -  
12:00 PM 80.6 °F 83.2 °F 68.0 °F 65% 30.01 in 6.2 mi East 15.0 mph - N/A   Scattered Clouds
12:30 PM 80.6 °F 83.9 °F 69.8 °F 70% 30.01 in 6.2 mi East 13.8 mph - N/A   Unknown
1:00 PM 80.6 °F 83.2 °F 68.0 °F 65% 29.98 in 6.2 mi East 12.7 mph - N/A   Unknown
1:30 PM 80.6 °F 83.9 °F 69.8 °F 70% 29.98 in 6.2 mi East 11.5 mph - N/A   Unknown
2:00 PM 80.6 °F 83.2 °F 68.0 °F 65% 29.98 in 6.2 mi East 11.5 mph - N/A   Unknown
2:30 PM 80.6 °F 83.2 °F 68.0 °F 65% 29.98 in 6.2 mi East 12.7 mph - N/A   Unknown
3:00 PM 80 °F - 69 °F 60% 29.96 in - East 12.7 mph - -  
3:00 PM 78.8 °F - 68.0 °F 69% 29.95 in 6.2 mi East 12.7 mph - N/A   Scattered Clouds
3:30 PM 78.8 °F - 68.0 °F 69% 29.95 in 6.2 mi East 12.7 mph - N/A   Scattered Clouds
4:00 PM 78.8 °F - 69.8 °F 74% 29.95 in 6.2 mi ESE 12.7 mph - N/A   Unknown
4:30 PM 78.8 °F - 68.0 °F 69% 29.95 in 6.2 mi East 12.7 mph - N/A   Scattered Clouds
5:00 PM 77.0 °F - 68.0 °F 74% 29.95 in 6.2 mi East 13.8 mph - N/A   Unknown
5:30 PM 77.0 °F - 68.0 °F 74% 29.98 in 6.2 mi East 12.7 mph - N/A   Unknown
6:00 PM 77 °F - 67 °F 65% 29.98 in - East 11.5 mph - -  
6:00 PM 77.0 °F - 68.0 °F 74% 29.98 in 6.2 mi East 11.5 mph - N/A   Scattered Clouds
6:30 PM 77.0 °F - 68.0 °F 74% 29.98 in 6.2 mi East 10.4 mph - N/A   Scattered Clouds
7:00 PM 77.0 °F - 68.0 °F 74% 29.98 in 6.2 mi East 10.4 mph - N/A   Unknown
7:30 PM 77.0 °F - 68.0 °F 74% 30.01 in - East 10.4 mph - N/A   Unknown
8:00 PM 77.0 °F - 68.0 °F 74% 30.01 in 6.2 mi ENE 9.2 mph - N/A   Overcast
8:30 PM 77.0 °F - 68.0 °F 74% 30.01 in 6.2 mi East 11.5 mph - N/A   Mostly Cloudy
9:00 PM 77 °F - 68 °F 68% 30.03 in - ENE 10.4 mph - -  
9:00 PM 77.0 °F - 68.0 °F 74% 30.04 in 6.2 mi ENE 10.4 mph - N/A   Scattered Clouds
9:30 PM 77.0 °F - 68.0 °F 74% 30.04 in 6.2 mi East 9.2 mph - N/A   Scattered Clouds
10:00 PM 77.0 °F - 68.0 °F 74% 30.04 in 6.2 mi ENE 9.2 mph - N/A   Mostly Cloudy
10:30 PM 77.0 °F - 68.0 °F 74% 30.04 in 6.2 mi ENE 9.2 mph - N/A   Mostly Cloudy
11:00 PM 77.0 °F - 68.0 °F 74% 30.04 in 6.2 mi ENE 6.9 mph - N/A   Scattered Clouds
11:30 PM 77.0 °F - 68.0 °F 74% 30.04 in 6.2 mi ENE 10.4 mph - N/A   Scattered Clouds